Spokane, WA

4:16 AM PDT on May 25, 2017 (GMT -0700)
Spokane International

Weather History for KGEG - January, 2014

Change the Weather History Date:

Saturday, January 18, 2014

  Actual Average Record
Temperature  
Mean Temperature 30 °F 30 °F  
Max Temperature 33 °F 35 °F 54 °F (1919)
Min Temperature 27 °F 25 °F -28 °F (1883)
Degree Days  
Heating Degree Days 35 35  
Month to date heating degree days 590 654  
Since 1 July heating degree days 3458 3488  
Cooling Degree Days 0 0  
Month to date cooling degree days 0 0  
Year to date cooling degree days 0 0  
Moisture  
Dew Point 27 °F    
Average Humidity 89    
Maximum Humidity 100    
Minimum Humidity 78    
Precipitation  
Precipitation 0.00 in 0.06 in 0.60 in (1932)
Month to date precipitation 0.59 1.12  
Year to date precipitation 0.59 1.12  
Snow  
Snow 0.00 in 0.30 in 4.30 in (1913)
Month to date snowfall 2.5 7.7  
Since 1 July snowfall 9.3 29.8  
Snow Depth 0.00 in    
Sea Level Pressure  
Sea Level Pressure 30.34 in    
Wind  
Wind Speed 5 mph (NE)    
Max Wind Speed 10 mph    
Max Gust Speed 13 mph    
T = Trace of Precipitation, MM = Missing Value Source: NWS Daily Summary

Daily Weather History Graph

Daily Weather History Graph

Search for Another Location

Airport or City:

Trip Planner

Search our weather history database for the weather conditions in past years. The results will help you decide how hot, cold, wet, or windy it might be!

Date:

Astronomy

Jan. 18, 2014 Rise Set
Actual Time 7:31 AM PST 4:30 PM PST
Civil Twilight 6:56 AM PST 5:04 PM PST
Nautical Twilight 6:18 AM PST 5:42 PM PST
Astronomical Twilight 5:42 AM PST 6:19 PM PST
Moon 7:31 PM PST (1/18) 8:20 AM PST (1/18)
Length of Visible Light 10h 07m
Length of Day
8h 58m
Waning Gibbous, 94% of the Moon is Illuminated
Jan 18
Waning Gibbous
Jan 23
Last Quarter
Jan 30
New
Feb 6
First Quarter
Feb 14
Full

Hourly Weather History & Observations

Time (PST) Temp. Windchill Dew Point Humidity Pressure Visibility Wind Dir Wind Speed Gust Speed Precip Events Conditions
12:53 AM 28.0 °F 19.3 °F 27.0 °F 96% 30.41 in 0.1 mi NE 9.2 mph - N/A Fog Light Freezing Fog
1:53 AM 28.0 °F 20.0 °F 27.0 °F 96% 30.41 in 0.1 mi ENE 8.1 mph - N/A Fog Light Freezing Fog
2:53 AM 28.9 °F 21.9 °F 27.0 °F 92% 30.41 in 0.1 mi NE 6.9 mph - N/A Fog Light Freezing Fog
3:53 AM 28.0 °F 20.8 °F 26.1 °F 92% 30.41 in 0.1 mi NE 6.9 mph - N/A Fog Light Freezing Fog
4:53 AM 27.0 °F 18.7 °F 27.0 °F 100% 30.40 in 0.1 mi NE 8.1 mph - N/A Fog Light Freezing Fog
5:53 AM 28.0 °F 20.8 °F 28.0 °F 100% 30.40 in 0.1 mi NE 6.9 mph - N/A Fog Light Freezing Fog
6:53 AM 27.0 °F 20.5 °F 27.0 °F 100% 30.41 in 0.1 mi NNE 5.8 mph - N/A Fog Light Freezing Fog
7:53 AM 30.9 °F 25.2 °F 26.1 °F 82% 30.40 in 0.1 mi NE 5.8 mph - N/A Fog Light Freezing Fog
8:53 AM 28.0 °F 20.0 °F 25.0 °F 88% 30.42 in 0.1 mi NE 8.1 mph - N/A Fog Light Freezing Fog
9:53 AM 28.0 °F 20.0 °F 25.0 °F 88% 30.43 in 0.1 mi NE 8.1 mph - N/A Fog Light Freezing Fog
10:53 AM 28.0 °F 20.8 °F 24.1 °F 85% 30.40 in 0.1 mi ENE 6.9 mph - N/A Fog Light Freezing Fog
11:53 AM 30.0 °F 23.2 °F 26.1 °F 85% 30.38 in 0.1 mi ENE 6.9 mph - N/A Fog Light Freezing Fog
12:53 PM 30.0 °F 24.1 °F 27.0 °F 88% 30.35 in 0.2 mi NNE 5.8 mph - N/A Fog Light Freezing Fog
1:53 PM 30.9 °F 26.2 °F 27.0 °F 85% 30.31 in 0.2 mi East 4.6 mph - N/A Fog Light Freezing Fog
2:53 PM 30.0 °F - 27.0 °F 88% 30.32 in 0.1 mi Calm Calm - N/A Fog Light Freezing Fog
3:53 PM 30.0 °F - 27.0 °F 88% 30.32 in 0.1 mi Calm Calm - N/A Fog Light Freezing Fog
4:53 PM 30.9 °F 27.5 °F 27.0 °F 85% 30.31 in 0.2 mi ENE 3.5 mph - N/A Fog Light Freezing Fog
5:53 PM 30.9 °F - 28.0 °F 89% 30.30 in 0.2 mi Calm Calm - N/A Fog Light Freezing Fog
6:53 PM 30.9 °F 27.5 °F 27.0 °F 85% 30.27 in 0.2 mi NE 3.5 mph - N/A Fog Light Freezing Fog
7:53 PM 30.9 °F - 28.0 °F 89% 30.27 in 0.2 mi Calm Calm - N/A Fog Light Freezing Fog
8:22 PM 30.0 °F 25.2 °F 26.1 °F 85% 30.20 in 0.1 mi NNE 4.6 mph - N/A Fog Light Freezing Fog
8:53 PM 30.9 °F 25.2 °F 27.0 °F 85% 30.27 in 0.1 mi NNE 5.8 mph - N/A Fog Light Freezing Fog
9:53 PM 32.0 °F 26.4 °F 27.0 °F 82% 30.27 in 0.1 mi NE 5.8 mph - N/A Fog Light Freezing Fog
10:53 PM 30.9 °F 27.5 °F 28.9 °F 92% 30.26 in 0.1 mi East 3.5 mph - N/A Fog Light Freezing Fog
11:26 PM 30.9 °F - 27.0 °F 85% 30.18 in 0.2 mi Calm Calm - N/A Fog Light Freezing Fog
11:53 PM 30.0 °F - 27.0 °F 88% 30.24 in 0.2 mi Calm Calm - N/A Fog Light Freezing Fog